Temp
19 19 19 18 18 18 18 18 18 18 18 19 18 18 18 18 18 19 19 19 18 18 18 18 18 18 18 18 18 18 18 18 17 17 17 17 17 17 17 17 17 17 17 17 17 18 18 18 19 19 19 19 19 19 20 20 20 21 21 20 20 19
20 19 18 18 18 18 17 18 18 18 18 18 18 18 18 18 18 19 19 19 18 18 18 18 18 18 18 18 18 18 18 18 17 17 17 17 17 17 17 17 17 17 17 17 18 18 18 18 19 19 19 19 19 20 20 20 20 21 21 21 20 19
19 19 18 18 18 18 18 18 18 18 18 18 18 18 18 18 18 18 19 19 18 19 19 19 18 18 18 18 18 18 18 18 18 17 17 17 17 17 17 17 17 17 17 18 18 19 19 19 19 19 20 19 19 20 20 20 20 21 21 20 20 18
19 18 19 18 18 18 18 18 18 18 18 18 18 18 18 18 18 18 18 18 19 19 19 19 18 18 18 18 18 18 18 18 18 18 18 18 17 17 17 17 17 17 18 18 19 19 20 20 19 19 19 19 19 20 20 20 20 21 20 20 19 18
19 18 19 18 18 18 18 18 18 18 18 18 18 18 18 18 18 18 18 18 19 18 19 18 18 18 19 18 18 18 18 18 18 18 18 18 18 18 17 17 17 18 18 18 19 19 20 20 20 20 20 19 19 19 20 20 20 21 20 19 19 18
19 19 19 19 18 18 18 18 18 18 17 18 18 18 18 18 18 18 18 18 18 18 19 18 18 18 19 19 19 19 19 18 18 18 18 19 19 18 18 18 18 18 18 18 19 19 19 20 20 20 20 20 19 20 20 21 20 20 20 19 18 18
19 19 19 18 18 18 19 18 18 18 17 18 18 18 18 18 18 18 18 18 18 18 19 18 18 18 19 19 19 19 19 19 19 19 18 19 18 18 19 18 18 18 18 19 19 19 19 19 19 20 20 20 20 20 20 20 20 20 20 19 18 18
19 19 19 18 18 18 18 18 18 18 18 18 18 18 18 18 18 18 18 17 18 18 18 18 18 18 19 19 19 18 19 18 19 19 19 19 18 18 18 18 18 19 19 19 19 19 19 19 19 20 20 20 20 20 20 20 20 20 19 19 18 18
19 19 19 18 18 18 17 18 18 18 18 18 18 18 17 17 18 17 18 18 18 18 18 18 17 18 18 18 18 18 18 18 18 19 18 18 18 18 18 18 19 19 19 19 19 19 20 20 19 19 20 20 20 20 20 20 20 20 20 19 18 18
20 19 19 18 18 18 18 17 18 18 17 17 18 18 17 17 17 18 18 18 18 17 17 17 17 17 18 18 17 17 17 17 17 18 18 18 18 18 18 18 19 19 19 19 19 19 20 20 20 19 19 20 20 20 20 20 20 20 19 19 18 18
20 19 19 19 18 18 18 18 18 18 18 18 18 18 17 17 17 17 17 17 17 17 17 17 17 18 18 17 17 17 17 17 17 17 17 17 18 18 18 18 19 19 19 19 19 19 20 20 20 20 20 20 20 20 20 20 20 20 19 19 19 18
19 19 19 19 18 17 18 18 19 19 19 19 18 17 17 17 17 17 17 17 17 16 16 16 18 18 17 17 16 17 17 17 17 17 17 17 18 17 17 17 18 19 19 19 19 19 20 20 21 20 20 20 20 20 20 20 20 19 19 19 19 18
19 19 19 19 19 18 19 19 19 20 19 18 17 17 17 17 17 17 17 17 16 15 16 17 18 18 17 16 16 16 17 17 17 16 16 17 17 17 17 17 18 18 18 19 19 19 19 19 20 20 20 20 20 20 20 20 20 19 19 19 19 19
19 18 19 19 19 19 19 19 20 19 18 18 18 17 17 17 17 16 17 17 16 15 16 17 18 18 16 16 16 16 16 16 16 16 16 16 16 17 17 17 18 19 19 19 19 19 19 19 19 20 20 20 20 20 20 20 20 19 19 19 19 19
19 18 19 19 19 19 19 20 19 19 18 17 17 17 17 17 17 16 16 17 16 15 16 18 17 16 16 15 16 16 16 16 16 16 16 16 16 17 17 18 19 19 19 19 19 19 19 19 19 19 19 19 20 20 20 20 19 19 19 19 19 19
19 19 19 19 19 19 19 19 19 18 18 17 17 17 17 17 17 16 16 16 16 16 17 17 16 15 15 15 16 16 16 16 16 16 16 16 16 17 17 18 18 19 19 19 19 19 19 19 18 18 18 18 18 19 19 19 19 19 19 19 18 19
19 19 19 19 19 19 19 18 18 18 18 18 18 17 17 17 17 16 17 16 16 16 17 16 15 15 15 15 16 16 16 16 16 16 16 16 16 16 17 17 18 18 19 19 19 19 19 18 18 18 18 17 17 17 18 18 18 19 18 18 18 18
19 19 18 18 18 18 18 18 18 18 17 17 17 17 17 17 17 17 17 17 16 16 16 16 15 15 15 15 16 16 16 16 16 16 16 16 16 16 16 17 17 18 18 19 19 19 19 18 18 18 17 17 17 17 17 17 17 17 17 17 18 18
18 18 18 18 18 18 18 17 17 17 17 17 17 17 17 17 17 17 17 17 17 16 16 16 16 16 15 15 16 16 16 16 16 16 16 16 16 16 16 16 17 17 18 18 19 19 18 18 18 18 17 17 17 17 16 17 17 17 17 17 17 17
17 18 18 18 17 17 17 17 17 17 18 18 18 18 18 18 17 17 17 17 17 17 16 16 16 16 15 16 16 16 16 16 16 16 16 16 16 16 16 16 17 17 17 18 18 18 18 18 18 17 17 17 17 17 16 16 17 17 17 17 17 17
17 18 18 18 17 17 18 18 18 19 19 19 18 18 18 18 18 17 17 17 17 17 17 17 16 16 16 16 16 15 16 16 15 16 16 16 16 16 16 16 17 17 17 18 18 18 17 18 18 17 17 17 17 17 17 17 17 18 18 17 17 17
18 18 18 18 18 18 18 19 19 20 20 19 19 19 19 18 17 17 17 17 17 17 17 17 17 16 16 16 16 16 16 15 15 16 16 16 16 16 16 16 16 17 17 17 17 17 17 17 18 19 19 19 18 17 17 17 17 17 18 18 18 18
18 18 18 18 18 18 19 19 19 20 20 20 19 19 19 18 18 17 17 17 17 17 17 17 17 16 16 16 16 16 16 15 15 15 16 16 16 16 15 16 16 17 17 17 16 17 16 17 18 19 19 19 19 18 17 18 18 17 17 17 18 18
19 19 19 18 19 19 19 18 18 18 18 19 18 18 18 18 18 18 17 17 17 17 17 17 17 17 17 16 16 16 16 16 16 15 16 16 16 16 15 15 16 16 17 17 16 16 16 16 17 19 19 19 19 18 17 18 18 17 17 18 18 18
19 19 19 19 19 19 18 18 18 18 18 18 18 18 18 18 18 18 18 18 17 17 17 17 17 17 17 16 16 16 16 16 16 16 16 16 16 16 16 16 16 16 16 17 17 16 16 16 16 17 18 18 19 18 16 18 19 17 17 18 18 18
19 20 19 19 19 18 18 18 18 18 19 19 19 19 19 19 18 18 18 18 17 17 17 17 17 17 17 17 16 16 16 17 17 16 16 17 17 16 16 16 16 17 17 16 17 16 16 16 16 16 17 17 17 17 17 19 19 18 17 17 18 18
19 20 19 19 19 18 18 19 19 19 20 20 20 19 19 18 18 18 18 17 17 17 17 17 17 17 17 17 16 16 16 16 17 17 17 17 17 17 17 17 17 17 17 16 16 16 16 16 16 16 16 17 16 17 18 19 19 18 18 17 17 18
19 19 19 19 18 18 19 19 19 20 20 20 19 19 18 18 18 18 17 17 17 17 17 17 17 17 17 17 16 16 16 16 17 17 17 17 17 17 17 17 16 16 16 16 16 16 16 16 17 17 16 16 17 17 18 18 19 19 19 18 17 17
19 19 19 18 18 18 19 19 19 20 20 19 19 18 18 18 17 17 17 17 17 17 17 17 17 16 17 17 17 16 16 16 16 17 17 17 17 16 16 16 16 16 16 16 16 16 16 17 18 17 17 17 18 18 18 18 19 20 20 19 17 17
19 18 18 18 18 18 18 19 19 19 19 19 18 18 18 17 17 17 17 17 17 17 17 17 16 16 16 16 16 16 16 16 16 16 17 16 16 16 16 16 16 16 16 16 16 16 17 17 17 17 17 18 18 18 19 19 19 19 20 20 19 18
18 18 18 18 18 18 18 19 19 19 19 19 18 18 18 17 17 18 17 17 17 17 17 17 17 16 16 16 16 16 16 16 16 16 16 16 16 16 16 16 16 16 16 16 16 16 16 17 17 16 17 18 19 19 19 19 19 19 20 20 19 19
18 17 18 18 18 18 18 18 18 19 19 18 18 18 18 17 18 18 18 17 17 17 17 17 17 16 16 16 16 16 16 16 16 16 16 16 16 16 16 16 16 16 16 16 16 16 16 16 16 17 17 17 18 18 19 19 19 19 19 20 19 19
17 17 17 17 17 18 18 18 18 18 18 18 18 18 18 18 18 18 18 17 17 17 17 17 17 17 16 16 16 16 16 16 16 15 16 16 16 16 16 16 16 16 16 16 16 16 16 16 16 16 17 17 17 18 18 18 19 19 19 19 19 20
15 16 17 17 17 17 17 18 18 18 18 18 18 18 18 18 18 18 18 17 17 17 17 17 17 16 16 16 16 15 15 15 15 15 15 15 15 15 16 17 16 16 16 16 16 16 16 16 16 17 17 17 18 18 18 18 18 19 19 19 19 20
16 16 15 16 17 17 18 18 18 18 18 18 18 18 18 18 17 17 17 17 17 17 17 17 16 16 15 15 15 15 15 15 15 15 15 15 15 15 16 16 16 16 16 16 16 16 16 16 16 16 17 17 17 17 18 18 18 19 19 19 19 19
17 16 15 16 17 18 19 19 19 18 17 18 17 18 18 17 17 17 17 17 17 17 17 16 16 15 15 15 15 15 15 15 14 15 15 15 15 15 15 16 16 15 15 16 16 16 16 16 16 16 16 17 17 17 17 17 18 18 18 19 19 19
18 16 15 16 18 18 19 19 19 18 17 17 17 17 17 16 16 16 17 17 17 16 16 16 16 15 15 15 15 15 15 15 14 15 15 15 15 15 15 15 15 15 15 15 15 15 16 16 15 16 16 16 17 17 17 17 17 17 17 18 18 18
Height
807 808 810 812 813 815 817 818 819 820 822 824 825 827 829 829 830 830 831 831 833 835 836 836 837 838 838 838 839 840 840 841 842 842 843 843 843 843 843 843 843 843 843 844 844 845 845 846 846 847 847 847 848 848 849 850 851 851 851 852 852 852
806 809 811 813 814 817 819 819 820 820 822 824 825 827 828 829 830 830 831 832 834 835 836 837 837 838 838 838 839 840 840 841 842 842 842 843 843 843 843 843 844 844 844 844 844 845 846 846 847 847 847 847 848 849 850 850 851 852 852 852 852 852
807 809 812 813 815 816 818 819 819 819 822 825 826 827 828 829 830 831 832 833 835 835 836 837 837 838 838 839 839 840 840 841 841 842 842 842 842 842 843 843 844 844 844 844 845 846 846 846 847 847 847 848 848 849 850 850 852 852 853 853 853 852
809 811 812 813 814 817 818 819 819 820 823 825 826 827 828 829 830 831 832 833 835 835 836 837 837 838 838 839 839 840 841 841 841 842 841 841 842 842 842 843 843 844 844 845 845 845 845 846 847 847 847 848 848 849 850 851 852 852 853 854 853 853
810 811 811 812 814 817 819 820 820 822 825 826 826 827 828 829 830 831 832 833 834 835 836 836 837 838 839 839 840 840 840 841 841 841 841 841 841 841 842 842 843 843 844 845 845 845 845 846 846 847 847 848 848 849 850 851 852 853 853 854 853 853
811 811 811 812 814 817 818 820 822 823 825 826 827 828 828 829 830 831 832 833 834 835 835 836 837 837 838 839 839 840 840 840 841 841 841 841 841 841 841 842 842 843 844 844 844 845 845 845 846 847 847 847 848 849 850 851 852 853 853 854 853 853
810 811 812 813 815 817 818 820 823 824 826 826 827 828 829 829 830 831 832 833 833 834 835 835 836 836 838 838 838 839 839 839 840 840 840 840 840 840 841 841 842 842 843 843 844 844 844 845 846 846 847 847 848 849 850 851 852 853 853 854 853 853
811 811 813 814 816 818 819 821 823 826 827 826 827 829 830 829 830 831 832 832 833 834 834 834 834 835 836 837 837 838 838 838 839 839 839 839 839 840 840 840 840 841 842 843 843 843 844 844 845 846 846 847 848 849 850 851 852 853 853 854 854 853
812 812 814 816 818 819 822 823 824 826 828 828 829 830 831 830 831 831 832 833 833 834 833 833 834 835 836 836 837 837 838 838 838 838 838 839 839 839 840 839 840 841 841 842 842 843 843 844 845 845 846 847 848 849 850 851 851 852 853 854 854 854
812 813 815 817 819 820 822 824 824 825 828 830 830 830 830 830 831 831 832 833 833 834 834 834 835 835 835 836 837 838 838 838 838 838 838 839 839 839 839 839 840 840 841 842 842 843 843 844 844 845 846 846 847 848 849 850 851 852 852 853 854 854
813 814 815 817 819 821 822 823 824 825 827 828 828 829 829 829 830 831 832 832 832 833 834 836 836 834 834 836 838 838 838 838 838 838 839 839 838 838 838 839 839 840 841 841 842 842 843 843 844 845 846 846 847 848 849 849 850 851 852 853 853 854
813 814 816 817 818 821 822 823 823 824 826 826 827 827 828 828 829 830 831 831 832 832 834 836 835 833 834 836 837 837 836 837 837 837 839 839 838 838 838 838 839 840 840 841 841 842 842 843 844 845 845 846 847 848 848 849 850 850 851 852 853 853
813 814 816 816 817 819 820 821 822 823 824 825 826 826 827 827 828 830 831 831 832 833 836 836 833 832 833 835 836 836 836 836 836 837 838 839 839 839 839 838 839 839 840 840 841 842 842 843 844 844 845 846 846 847 848 849 849 850 851 851 852 853
812 814 815 816 816 817 818 819 821 822 823 824 825 825 826 826 828 830 831 831 832 834 835 833 831 831 832 833 835 835 835 835 836 836 836 838 839 839 838 838 838 839 839 840 840 841 842 843 844 845 845 846 846 847 848 848 849 850 851 851 852 852
810 812 813 815 815 816 817 818 820 821 822 823 824 825 825 826 828 830 830 830 831 833 832 831 831 831 831 832 834 834 835 835 835 835 835 836 838 837 837 837 837 838 839 840 840 841 842 843 844 845 846 846 847 848 848 848 849 850 851 851 852 852
808 810 811 813 815 816 817 818 820 821 822 823 824 824 825 826 827 829 830 830 830 830 829 829 830 830 830 832 833 833 834 834 834 834 835 836 836 836 836 836 837 838 839 840 840 842 842 843 844 845 846 847 847 848 848 849 850 850 851 851 852 852
806 808 810 813 814 815 817 818 819 821 822 823 824 824 825 826 827 828 829 829 829 828 827 828 829 829 830 831 832 833 833 833 834 834 834 835 836 836 836 836 837 838 839 840 840 841 843 843 844 845 846 847 847 848 849 849 850 850 851 851 851 851
806 808 810 812 814 816 817 818 820 821 822 823 824 825 826 827 827 828 829 829 829 829 828 829 829 830 830 831 831 832 832 833 833 833 834 835 836 837 837 837 837 838 839 839 840 841 842 843 844 845 846 846 847 847 849 849 849 850 851 851 851 851
807 808 810 812 814 816 817 819 820 821 822 823 824 825 826 827 828 828 829 829 829 829 829 829 830 831 831 831 831 831 831 832 833 833 834 835 836 836 837 837 838 839 839 839 840 841 842 843 844 845 846 846 847 848 849 849 850 850 851 852 851 851
809 809 810 813 814 816 818 819 821 822 823 824 825 826 827 828 828 829 829 830 830 829 829 829 830 830 831 831 831 831 831 832 833 834 835 836 836 836 837 838 839 839 839 840 840 841 842 843 843 845 846 847 848 848 849 850 850 851 852 852 851 851
808 809 810 813 815 816 818 820 821 822 822 824 826 826 827 828 829 829 830 830 830 830 830 830 830 831 831 831 831 831 831 832 833 834 835 835 836 837 837 838 839 839 839 839 840 841 842 842 843 844 846 847 848 849 849 850 851 851 852 852 851 851
807 809 810 812 814 816 818 819 820 821 822 824 825 826 827 828 829 829 830 831 831 831 831 831 831 831 832 832 831 831 831 832 833 833 835 835 836 836 837 838 839 839 839 839 840 840 841 842 842 843 843 844 846 848 849 850 851 851 851 852 851 851
806 808 810 812 814 816 817 819 820 821 822 824 825 826 827 828 829 830 830 831 832 832 832 832 832 832 832 832 833 832 832 832 833 834 835 835 836 836 837 838 838 839 839 839 839 840 841 841 841 841 842 843 843 845 848 848 850 852 851 852 852 851
805 807 810 812 814 816 817 819 820 821 823 824 825 826 827 829 829 830 831 831 832 832 832 833 833 833 833 833 833 833 833 834 834 834 835 835 836 836 837 837 838 838 838 838 839 840 841 841 841 841 841 842 841 844 849 847 847 851 851 851 852 851
804 807 809 811 813 815 817 818 820 821 823 824 825 826 827 828 829 830 831 831 832 832 833 833 833 834 834 833 834 833 833 834 834 834 835 835 836 836 836 837 837 838 838 838 839 839 840 841 841 841 840 841 841 845 848 846 846 850 851 851 851 852
804 806 808 811 813 815 816 818 819 821 822 823 825 826 826 827 828 829 830 831 832 832 833 833 834 834 834 834 834 834 834 834 834 834 834 835 835 836 836 837 837 838 838 838 839 839 840 840 841 841 841 842 844 845 845 844 844 848 851 852 852 852
803 805 807 810 812 814 815 817 819 820 821 822 823 824 826 827 828 829 830 831 832 833 833 834 834 834 834 834 834 834 834 834 834 834 834 834 835 835 836 836 837 837 837 838 838 838 839 840 841 841 842 843 844 844 844 843 842 845 849 851 853 854
802 804 806 809 811 813 815 817 819 820 821 822 823 825 826 827 829 830 830 832 832 833 834 834 834 835 835 835 835 835 835 835 835 835 834 834 835 835 836 836 837 837 837 837 838 838 838 840 840 841 842 843 843 843 844 843 842 842 845 849 853 855
800 803 805 808 810 812 814 816 818 820 821 822 824 825 827 828 829 829 830 831 832 833 834 835 835 835 835 835 835 835 835 835 835 835 835 835 835 835 836 836 837 837 838 838 838 838 838 839 839 840 842 843 843 843 843 844 844 843 843 847 851 854
800 802 805 807 810 811 814 816 818 819 821 823 824 826 827 828 829 829 830 831 832 833 834 835 835 835 836 836 836 836 836 836 836 836 836 836 836 836 836 837 837 837 838 838 838 838 838 839 840 840 841 842 842 842 843 844 844 844 843 845 849 852
801 803 805 807 809 811 813 816 817 819 821 822 824 826 827 828 829 829 829 830 831 832 833 834 835 835 836 836 836 836 836 836 836 837 837 837 837 837 837 837 837 837 838 839 839 839 839 840 840 841 841 841 842 842 842 843 844 844 844 845 847 850
802 803 805 807 808 810 813 815 817 819 820 821 823 825 826 828 828 829 829 830 831 832 833 834 835 836 836 836 836 836 837 836 837 837 838 838 838 838 838 838 838 838 839 839 839 840 841 841 842 842 842 842 842 843 843 843 844 845 845 846 848 849
807 805 805 806 808 811 813 816 817 819 820 821 822 824 825 827 828 829 829 830 830 831 833 834 835 836 836 837 837 837 837 837 837 838 838 839 839 839 839 839 839 839 840 840 840 841 842 842 843 843 844 844 844 844 844 844 845 845 846 847 848 849
817 815 811 810 811 813 815 816 817 818 820 821 822 824 824 826 827 828 829 830 830 831 832 833 835 836 836 837 837 837 837 838 838 839 839 840 840 841 841 841 841 841 841 842 842 842 843 843 844 844 845 845 845 845 845 846 846 846 847 848 849 849
820 821 819 815 813 813 813 813 815 817 819 821 822 824 825 826 827 828 829 830 830 831 832 833 835 836 837 837 837 838 838 839 839 840 840 841 841 842 842 842 843 843 843 844 844 844 844 845 845 846 846 846 846 846 847 847 847 847 848 849 849 851
815 817 819 816 812 810 809 810 812 816 819 821 822 824 825 826 827 827 828 829 830 831 832 833 834 836 837 837 837 838 839 839 840 841 841 842 842 843 843 844 844 844 845 845 845 846 846 846 847 847 847 847 847 848 848 849 849 849 850 850 851 853
812 813 814 813 810 809 809 810 812 815 818 820 821 823 824 825 826 827 828 829 830 832 833 833 834 835 837 837 838 838 839 840 840 841 842 842 843 843 844 845 845 846 846 847 847 847 847 848 848 848 849 849 849 850 850 851 851 851 852 853 853 854
Wind_Speed
16 16 16 16 17 16 17 17 17 16 15 15 15 14 14 13 13 12 11 12 11 10 10 10 10 10 10 10 10 10 9 9 9 9 9 9 8 8 7 7 6 6 6 6 6 7 9 9 7 5 4 8 10 7 5 5 4 4 4 5 6 3
14 15 16 17 16 15 15 16 16 16 14 15 15 15 14 12 12 11 11 11 10 9 9 9 9 9 9 9 10 10 9 9 9 8 8 8 7 7 7 6 6 6 6 6 7 5 7 8 8 7 5 9 10 7 6 5 4 3 3 5 4 2
13 15 14 13 14 15 15 16 15 15 15 15 15 14 13 12 11 10 10 9 8 8 8 8 8 9 9 9 9 9 9 9 9 8 7 7 7 7 7 6 6 6 6 6 5 4 6 6 7 7 6 9 10 7 7 6 4 3 3 5 3 2
12 13 13 12 13 14 16 16 15 15 15 15 14 14 12 11 10 9 9 8 8 8 8 8 8 9 9 8 8 8 8 8 9 8 7 7 7 7 7 7 7 6 5 4 3 4 5 5 6 7 6 8 9 7 8 6 4 3 4 5 2 2
12 13 15 14 12 12 14 13 13 14 13 13 13 12 11 10 9 9 8 7 8 8 8 8 8 8 7 7 7 7 6 7 7 8 7 6 6 7 7 8 7 6 5 4 4 4 4 4 5 5 6 7 8 8 7 5 4 3 5 5 2 3
12 13 14 13 12 12 13 11 11 11 11 11 11 10 10 9 9 9 8 7 8 8 7 7 8 7 6 6 7 6 6 6 7 7 7 6 7 7 7 7 6 6 5 5 5 4 4 4 4 4 5 6 8 8 6 5 5 3 5 5 3 4
14 13 12 12 13 14 15 14 12 9 8 10 10 9 9 8 8 8 7 7 8 8 7 8 8 8 7 7 7 7 7 7 7 7 7 7 7 7 7 7 6 6 6 6 6 6 6 5 5 5 5 6 7 7 5 4 4 4 5 5 4 5
15 14 13 12 14 14 14 14 13 9 7 9 10 9 8 8 8 7 7 7 7 8 8 9 10 9 7 7 7 7 7 7 7 7 7 7 7 8 7 8 8 8 8 7 7 6 6 6 6 6 6 7 7 6 6 5 4 4 4 5 5 5
14 14 14 12 12 12 11 14 15 13 9 9 10 9 7 7 7 7 7 7 6 7 8 9 9 8 7 7 6 6 5 6 7 7 7 7 7 7 7 8 9 9 8 7 7 6 7 7 7 6 6 7 7 7 6 6 5 5 4 5 5 4
13 12 12 12 12 11 11 13 14 13 11 10 10 9 7 6 6 6 5 6 6 6 7 7 5 5 6 6 5 5 4 5 6 7 7 7 6 7 7 8 8 8 8 7 6 6 7 7 7 7 7 7 7 7 7 6 5 5 4 5 5 4
12 11 11 11 12 12 11 11 11 11 11 9 8 7 6 6 5 4 3 4 6 7 6 4 4 5 7 7 5 5 6 7 7 6 6 5 5 7 6 6 8 8 8 7 7 6 6 7 7 7 7 7 7 7 7 6 6 5 5 5 6 5
12 12 11 10 11 12 11 11 10 10 8 7 6 5 5 5 3 3 4 4 6 7 4 2 6 8 8 7 6 7 8 9 9 8 7 5 6 7 7 6 8 8 7 7 7 6 6 6 6 6 6 7 7 7 6 6 6 6 6 5 6 6
13 13 12 10 10 10 10 10 9 8 6 6 5 3 3 4 3 3 6 6 6 4 1 3 9 11 9 7 7 7 7 9 9 8 7 7 7 8 7 7 8 8 7 7 6 6 6 5 5 5 5 7 7 6 5 6 6 6 6 6 5 6
14 14 14 12 9 8 8 7 7 6 5 5 4 3 3 4 2 2 6 7 6 3 3 9 12 12 11 9 8 7 7 8 8 6 5 7 8 9 8 7 7 8 7 6 6 7 6 5 4 4 4 4 5 4 4 5 6 6 5 5 5 5
15 15 15 12 9 7 6 5 5 5 5 4 3 4 3 3 2 1 2 4 3 2 5 10 9 7 7 7 7 6 6 7 6 5 4 5 8 8 8 7 6 7 7 6 6 6 6 6 5 4 3 3 3 3 4 4 5 5 4 4 4 4
15 15 14 11 9 7 5 4 4 5 5 4 3 3 2 1 2 1 2 1 1 1 2 5 4 4 5 5 5 5 4 5 5 4 2 2 5 5 6 6 5 5 6 6 5 6 5 6 5 4 3 2 2 2 3 3 4 4 3 2 2 3
15 15 12 11 8 6 5 4 4 4 4 4 3 2 2 1 2 2 2 3 3 1 3 2 2 3 3 4 4 3 3 4 4 3 2 2 2 3 4 5 5 4 5 5 6 6 5 5 5 4 3 2 1 2 1 1 2 2 1 1 2 3
14 14 11 10 8 6 5 4 4 4 4 4 3 2 2 2 2 2 2 2 3 2 2 2 2 2 3 3 3 4 4 3 3 3 2 2 2 2 3 4 5 5 5 5 6 6 6 6 6 5 4 3 3 3 1 1 1 0 2 1 2 2
12 13 11 10 9 7 6 5 5 4 3 3 3 2 2 2 2 2 2 2 2 2 2 2 2 3 3 3 3 5 5 4 3 3 2 2 2 2 3 3 4 5 5 6 5 5 6 6 6 6 5 4 3 2 0 1 0 1 1 1 4 4
11 12 11 10 9 7 7 6 5 5 5 4 3 3 3 3 2 2 3 3 3 2 1 1 1 2 3 4 4 4 4 4 3 2 3 3 3 3 3 4 4 5 5 6 5 5 7 7 7 6 6 4 3 2 1 1 1 1 1 1 3 2
12 12 11 11 10 8 8 8 7 7 6 6 5 5 5 4 4 4 4 3 3 3 2 1 1 2 3 3 3 2 2 3 3 3 3 4 3 3 4 4 4 5 6 6 6 6 7 8 8 7 6 6 4 3 2 2 2 2 2 2 1 1
13 12 12 11 11 10 9 8 7 7 7 7 6 6 6 6 6 5 5 4 3 4 3 3 3 3 4 3 2 2 2 2 2 3 3 3 4 4 4 5 5 6 7 7 6 6 8 8 8 8 7 7 6 5 4 4 3 3 3 3 2 2
12 13 12 12 12 11 9 8 7 8 8 7 7 6 7 7 6 6 6 4 4 4 4 4 4 4 4 3 2 2 2 2 2 3 3 4 4 4 5 6 6 6 7 7 6 6 9 9 7 7 7 5 5 5 5 5 5 4 3 4 3 3
13 14 13 13 12 11 10 9 8 10 9 8 8 8 8 8 7 6 6 4 3 4 4 4 4 4 3 3 2 2 2 2 3 4 4 4 5 5 5 6 6 7 7 7 6 7 8 7 5 5 5 3 4 4 3 5 7 5 4 5 5 4
15 15 14 14 13 12 12 11 10 11 10 9 9 8 8 7 7 6 5 4 3 3 3 3 3 3 3 3 2 1 1 1 2 3 3 4 4 5 5 6 6 7 8 7 6 7 8 7 6 6 4 2 3 3 2 7 8 5 5 5 5 5
16 16 15 16 15 14 14 13 13 12 11 10 9 7 7 7 7 6 5 5 4 3 3 3 3 3 3 3 3 2 1 1 1 2 3 3 4 5 6 6 7 7 8 8 7 7 7 7 6 7 6 3 2 2 2 8 7 4 6 7 6 6
17 16 15 16 16 14 13 13 13 11 10 9 9 8 7 7 7 6 6 5 5 4 3 4 3 3 3 4 4 4 3 2 1 1 2 3 4 5 6 6 6 7 7 7 8 8 7 6 6 7 7 5 3 3 3 6 5 4 6 6 6 7
17 16 16 16 16 14 13 13 12 10 9 9 9 9 8 8 7 7 7 7 6 5 4 4 3 3 3 4 4 3 3 3 2 2 2 2 3 3 4 5 6 6 6 7 9 9 8 7 6 6 6 6 5 4 5 6 5 5 6 5 6 7
15 15 16 16 16 14 12 13 11 10 10 9 9 9 9 8 8 8 8 7 6 6 4 3 3 3 3 3 3 3 2 3 3 2 3 2 3 3 4 4 5 6 6 6 7 8 8 8 6 6 7 7 6 6 6 5 5 5 6 6 6 7
14 14 15 15 14 14 13 12 10 10 11 11 11 10 9 9 8 9 9 8 7 6 5 3 3 3 3 3 3 3 2 3 4 4 4 4 4 4 3 4 4 5 6 7 6 6 7 7 6 7 7 7 7 7 7 7 7 7 7 7 6 8
13 13 15 15 14 14 14 11 10 10 11 12 12 11 10 9 9 9 10 9 7 5 5 4 3 4 4 3 4 3 3 4 5 5 4 4 4 3 3 3 4 5 5 6 6 6 7 7 6 7 6 6 6 6 6 7 8 8 7 6 6 7
13 15 16 16 16 16 14 11 10 11 11 12 12 11 11 10 10 10 10 9 7 6 5 4 4 5 4 4 4 3 3 5 6 5 4 4 4 4 3 3 3 4 4 5 6 6 7 8 7 7 6 5 5 5 5 5 7 7 6 6 7 6
9 13 16 17 15 14 12 10 10 10 10 11 11 10 11 11 10 10 9 9 8 7 5 5 5 5 5 4 4 4 4 5 6 5 5 5 5 5 4 4 4 5 5 5 5 6 7 8 7 7 7 6 5 5 4 4 5 5 5 7 7 6
9 2 6 11 11 11 10 9 9 9 9 9 9 10 10 10 10 10 9 9 8 7 6 6 6 6 5 4 5 6 5 6 6 6 6 6 6 5 4 5 5 6 6 6 6 7 8 8 7 6 6 5 6 5 5 5 5 5 6 6 7 6
4 6 3 7 12 12 11 11 11 11 10 9 9 9 9 10 10 9 9 8 8 8 7 7 7 6 5 6 7 8 7 7 7 6 6 6 6 6 5 5 6 6 7 7 7 8 8 8 7 6 5 5 6 6 6 5 5 5 5 5 6 6
10 10 7 9 13 14 15 15 14 13 11 9 9 9 9 10 10 9 9 8 8 8 8 9 8 7 6 7 8 9 8 8 7 7 7 6 6 6 5 6 6 6 6 6 6 6 6 7 6 6 6 6 7 7 7 6 5 5 4 4 6 6
12 16 18 19 18 17 16 14 15 15 13 12 11 11 10 10 10 10 9 8 9 9 9 10 9 8 8 8 9 9 9 9 8 8 7 6 6 6 5 6 6 6 6 5 6 6 5 6 6 7 7 7 8 8 8 7 7 7 6 5 6 6
Wind_Direction
171 172 168 172 172 166 163 155 149 149 154 161 159 155 154 148 142 141 142 140 134 135 140 140 142 143 142 144 141 139 139 140 140 139 140 142 144 144 144 144 138 127 118 124 139 155 164 160 164 185 193 179 167 156 153 138 126 122 113 108 110 114
167 169 167 171 170 166 163 153 150 151 157 164 158 154 155 148 145 149 149 145 142 145 148 148 151 148 143 146 142 137 139 141 144 147 146 148 150 148 146 147 144 136 126 119 118 138 164 161 164 178 194 182 174 168 157 142 128 124 107 108 108 95
164 164 164 168 168 164 161 158 159 159 163 166 158 155 156 152 152 154 153 150 151 153 152 154 158 153 149 149 143 139 141 142 147 151 154 159 161 160 157 150 147 142 122 110 117 147 170 170 170 174 190 187 181 174 157 146 135 127 97 99 90 84
158 162 169 169 162 157 159 164 169 168 169 166 158 157 157 155 158 158 157 156 155 155 153 153 157 156 152 150 146 145 144 146 151 155 159 165 171 173 170 157 145 138 123 113 136 165 173 178 181 182 191 187 182 170 157 151 144 133 104 101 81 100
152 165 178 170 155 153 158 162 172 175 173 167 158 157 159 158 162 161 160 161 160 158 155 152 156 156 153 154 153 154 155 155 159 161 162 169 179 180 175 165 152 142 141 140 145 159 173 182 186 189 189 180 175 167 162 157 148 134 110 105 81 108
150 165 179 166 149 159 166 163 174 176 173 167 153 155 163 162 166 165 163 165 163 161 160 159 160 161 162 165 165 168 172 169 170 171 172 180 183 183 180 172 161 151 150 148 147 158 174 184 184 188 185 174 168 166 169 159 146 135 113 108 87 95
154 163 174 163 152 168 177 170 170 171 171 170 160 166 173 169 169 170 170 168 168 168 172 172 168 168 170 175 179 180 180 176 180 182 184 187 183 183 180 170 162 157 157 156 154 162 173 179 177 179 178 171 165 164 168 158 146 132 116 115 95 86
158 162 171 164 155 165 173 166 168 174 183 182 178 182 182 177 172 174 178 173 175 178 183 188 180 172 174 185 188 185 184 183 186 189 191 189 182 179 175 169 167 165 162 159 158 162 169 176 174 169 165 165 165 164 163 157 150 138 122 123 112 87
158 165 169 157 151 161 161 159 168 177 188 194 191 189 185 182 176 181 186 181 187 190 197 204 191 175 180 195 194 191 194 193 197 199 195 193 186 178 174 171 168 167 162 156 157 162 168 172 172 165 159 159 164 165 161 159 156 148 133 128 128 104
162 169 167 152 152 171 173 167 169 174 187 195 192 187 184 185 184 186 186 190 199 198 206 213 198 180 195 212 206 201 210 218 218 212 204 198 189 181 174 171 169 165 161 156 154 160 170 170 168 166 161 157 160 164 162 163 162 154 142 132 134 126
164 165 169 161 157 170 181 182 175 176 188 189 184 179 181 191 191 186 179 195 204 202 207 210 211 209 207 215 220 213 213 227 230 220 223 214 184 180 169 165 169 163 159 158 152 156 168 169 166 167 166 164 165 168 167 169 167 160 153 142 139 137
164 162 170 173 164 168 176 182 179 178 182 175 175 173 179 202 191 182 199 209 214 204 187 190 229 228 216 216 230 233 222 224 226 216 222 216 188 183 162 154 164 161 160 157 151 153 161 168 167 167 170 171 171 174 176 181 177 170 164 154 145 140
166 166 171 177 174 176 177 176 172 168 166 161 169 164 182 216 187 194 224 225 237 238 197 230 238 234 228 228 233 242 236 230 229 215 205 196 194 188 162 153 160 158 160 158 154 151 151 164 170 170 176 178 180 181 184 188 184 177 168 157 152 144
170 173 175 178 175 180 181 171 162 153 149 153 162 161 197 238 216 234 258 259 269 275 229 234 236 233 233 236 233 237 240 238 238 226 202 187 187 185 168 158 160 161 163 162 158 154 154 163 173 180 186 186 186 187 192 190 181 182 176 160 154 145
173 177 175 176 176 179 178 162 149 141 143 151 160 165 200 258 274 276 275 291 300 146 205 233 232 225 227 231 231 232 238 242 244 239 225 193 186 184 170 158 160 162 164 166 161 156 157 160 170 188 194 203 200 197 211 202 188 194 189 172 158 144
175 177 172 172 175 171 165 155 142 135 139 140 146 152 158 294 328 35 122 107 5 129 248 255 229 217 216 218 226 225 228 237 236 234 238 207 191 178 160 154 157 160 166 177 175 164 161 161 167 175 171 190 209 208 228 208 199 211 199 174 128 126
175 174 169 166 169 160 156 152 138 130 127 123 128 127 95 22 2 25 85 117 142 194 284 273 208 212 197 189 204 209 220 238 235 223 210 193 186 158 150 155 152 162 178 189 192 176 169 169 166 161 141 122 150 175 214 195 191 208 158 87 42 125
172 168 164 160 159 153 157 154 139 131 121 114 108 90 70 39 30 44 55 101 134 165 235 220 171 172 170 168 183 194 201 225 235 217 193 190 194 164 156 157 155 171 189 197 199 181 171 170 161 157 145 140 174 176 106 57 149 83 75 71 268 228
170 163 160 159 157 157 168 165 145 128 114 105 96 87 84 67 55 79 90 107 122 149 210 205 157 160 166 164 183 205 197 196 226 219 205 210 214 200 165 158 170 182 194 201 197 175 165 162 151 150 149 153 177 180 91 35 45 12 50 258 259 261
174 163 158 163 162 160 165 162 154 146 136 128 122 118 111 103 95 86 93 108 118 131 178 189 165 161 153 158 182 217 198 184 211 208 213 224 221 219 184 173 190 193 202 203 188 173 167 163 153 146 148 154 167 172 142 83 66 72 136 211 245 246
174 168 164 166 165 163 162 162 164 160 148 141 140 134 127 117 107 95 88 94 108 120 121 110 127 140 134 143 168 201 201 193 205 192 199 217 209 205 189 184 193 197 207 203 186 178 174 171 164 158 158 159 164 164 136 124 118 111 121 135 161 175
172 173 170 168 168 167 166 166 163 155 145 139 138 133 126 118 110 104 97 93 102 113 112 106 108 124 126 124 147 182 205 192 189 178 179 194 190 184 183 182 185 194 209 211 200 187 181 187 186 175 168 162 162 159 140 129 115 100 113 116 120 129
172 173 172 171 171 167 164 162 153 147 144 139 131 120 116 115 111 106 102 100 104 108 113 114 111 114 120 124 145 165 180 180 168 167 176 184 181 180 182 181 184 195 206 206 204 197 193 203 207 182 172 181 178 161 155 155 132 106 115 116 118 126
172 172 170 169 168 163 158 153 146 142 137 134 130 123 119 115 112 108 105 105 106 113 117 114 114 114 113 116 130 151 161 171 172 172 183 185 178 179 182 181 183 193 204 201 196 201 201 209 221 199 190 209 185 159 172 169 138 114 119 118 112 112
174 172 167 167 167 162 159 154 147 144 138 135 134 133 131 124 123 121 114 113 116 125 122 111 109 106 102 99 99 119 138 160 175 175 178 176 170 171 174 180 186 193 207 209 199 201 202 205 224 228 238 257 183 180 182 157 141 117 112 108 102 105
177 174 169 168 169 166 163 159 154 152 151 148 144 142 141 136 136 131 122 121 124 130 125 115 105 90 93 102 106 113 116 166 196 182 182 180 167 167 172 177 188 198 204 202 198 198 194 197 215 228 241 260 252 258 186 159 158 130 114 103 92 96
179 175 172 169 171 171 166 164 161 158 153 150 146 142 141 139 135 130 126 127 128 132 132 123 112 91 92 99 100 108 120 130 151 172 193 197 181 180 179 172 181 198 197 191 193 195 187 186 196 212 228 238 252 264 195 175 178 151 137 120 101 95
179 176 173 171 173 172 167 167 166 157 148 147 146 143 143 139 132 128 126 126 127 130 135 128 118 108 101 96 89 97 118 120 120 140 157 175 173 166 161 154 165 183 187 191 199 198 190 190 194 194 204 216 228 222 194 194 198 169 152 137 127 109
172 171 172 171 172 170 166 168 167 158 149 141 139 142 142 139 134 130 129 128 127 127 131 126 117 117 107 94 90 93 119 126 117 123 120 118 116 108 118 137 157 171 175 189 205 202 192 192 195 186 185 193 198 191 180 184 198 183 157 146 142 121
163 160 165 169 168 166 165 168 167 159 148 137 137 143 142 143 143 137 134 133 133 132 132 130 122 121 112 98 91 84 110 126 115 113 107 100 100 99 112 134 150 165 168 174 187 194 188 186 188 186 186 188 182 175 170 170 184 188 169 152 139 134
151 149 156 165 167 164 163 166 164 157 150 142 143 147 146 150 151 143 141 138 137 135 129 131 131 126 115 98 88 75 96 120 114 106 98 87 85 86 101 129 141 153 162 166 171 178 177 174 180 182 184 187 179 176 177 176 181 186 181 160 144 146
141 143 153 165 169 165 161 161 158 157 155 148 147 151 152 155 154 148 145 140 137 136 130 132 136 129 117 97 92 88 99 119 115 102 88 78 74 72 76 100 124 134 145 152 155 163 165 167 172 174 180 188 184 181 183 181 180 183 182 163 154 154
123 146 156 163 162 154 152 151 151 155 157 153 151 153 152 152 154 150 147 143 139 138 137 138 136 128 118 102 97 101 105 113 109 95 83 77 80 78 76 91 103 110 115 120 131 141 151 158 162 164 168 168 161 156 144 139 152 158 155 152 155 158
31 30 137 139 131 125 131 142 155 163 165 160 155 157 155 154 156 149 145 145 139 137 141 139 133 122 113 104 101 103 101 96 92 87 84 86 93 88 86 101 97 93 97 96 103 115 125 132 135 138 140 133 126 120 107 105 115 128 141 153 160 161
333 309 356 116 128 136 150 164 175 177 171 164 159 160 157 152 151 147 142 142 135 136 141 138 132 120 109 107 106 106 102 96 91 90 90 94 100 95 94 104 95 87 92 92 95 103 109 114 114 111 109 105 106 102 96 99 104 117 138 151 154 160
226 228 219 189 176 177 181 180 182 181 172 165 161 160 158 153 150 145 142 140 134 136 141 138 133 124 114 111 109 108 103 99 95 94 96 98 101 99 95 98 96 92 92 90 95 100 103 106 103 100 100 100 104 100 93 98 100 102 113 128 141 156
245 229 209 205 203 201 200 194 189 185 178 171 167 165 163 156 150 145 141 137 135 140 145 141 136 129 123 116 112 109 104 101 99 98 100 101 102 104 99 97 101 100 95 93 96 95 97 103 102 102 102 100 103 102 96 95 96 97 103 117 136 155